Location: Auckland
(36.8670°S, 174.7670°E)
Time: 00:10:36
(UTC+12:00)

Transit 4A - All Passes

Search period start: 21 July 2019 00:00
Search period end: 31 July 2019 00:00
Orbit: 862 x 982 km, 66.8° (Epoch: 19 July)

Date Brightness Start Highest point End Pass type
(mag) Time Alt. Az. Time Alt. Az. Time Alt. Az.
21 Jul - 00:42:29 10° WSW 00:46:31 19° WNW 00:50:37 10° NNW night (unlit)
21 Jul - 12:15:43 10° NE 12:19:22 17° ENE 12:23:01 10° ESE daylight
21 Jul - 13:59:19 10° NW 14:05:07 62° WSW 14:10:55 10° SSE daylight
21 Jul - 15:51:29 10° SW 15:52:40 11° SW 15:53:51 10° SSW daylight
21 Jul - 21:19:26 10° S 21:22:57 16° SE 21:26:29 10° E night (unlit)
21 Jul - 23:04:03 10° SSW 23:10:04 90° NW 23:16:13 10° NNE night (unlit)
22 Jul - 00:53:49 10° W 00:55:34 11° WNW 00:57:20 10° WNW night (unlit)
22 Jul - 12:23:38 10° NNE 12:28:28 27° ENE 12:33:17 10° SE daylight
22 Jul - 14:09:04 10° NW 14:14:33 41° WSW 14:20:03 10° SSE daylight
22 Jul - 21:28:02 10° S 21:32:38 22° SE 21:37:18 10° E night (unlit)
22 Jul - 23:13:28 10° SW 23:19:21 60° WNW 23:25:22 10° N night (unlit)
23 Jul - 12:32:10 10° N 12:37:38 42° ENE 12:43:05 10° SE daylight
23 Jul - 14:19:07 10° WNW 14:24:04 28° SW 14:29:03 10° S daylight
23 Jul - 21:36:54 10° S 21:42:13 32° SE 21:47:38 10° ENE night (unlit)
23 Jul - 23:23:04 10° SW 23:28:35 39° WNW 23:34:12 10° N night (unlit)
24 Jul - 12:41:04 10° NNW 12:46:51 67° ENE 12:52:39 10° SSE daylight
24 Jul - 14:29:34 10° W 14:33:41 19° SW 14:37:50 10° S daylight
24 Jul - 21:45:57 10° SSW 21:51:43 47° ESE 21:57:36 10° NE night (unlit)
24 Jul - 23:32:56 10° SW 23:37:44 25° WNW 23:42:37 10° NNW night (unlit)
25 Jul - 11:08:22 10° NE 11:10:37 12° ENE 11:12:52 10° E daylight
25 Jul - 12:50:18 10° NNW 12:56:10 81° WSW 13:02:01 10° SSE daylight
25 Jul - 14:40:37 10° WSW 14:43:25 14° SW 14:46:14 10° SSW daylight
25 Jul - 20:11:16 10° SSE 20:13:44 12° SE 20:16:12 10° ESE visible
25 Jul - 21:55:07 10° SSW 22:01:07 71° ESE 22:07:15 10° NE night (unlit)
25 Jul - 23:43:21 10° WSW 23:46:49 16° WNW 23:50:21 10° NW night (unlit)
26 Jul - 11:15:31 10° NNE 11:19:40 20° ENE 11:23:49 10° ESE daylight
26 Jul - 12:59:50 10° NW 13:05:32 53° WSW 13:11:15 10° SSE daylight
26 Jul - 20:19:30 10° S 20:23:29 18° SE 20:27:31 10° E visible
26 Jul - 22:04:26 10° SSW 22:10:27 78° WNW 22:16:36 10° NNE night (unlit)
27 Jul - 11:23:41 10° N 11:28:47 32° ENE 11:33:52 10° SE daylight
27 Jul - 13:09:41 10° WNW 13:15:00 36° SW 13:20:20 10° S daylight
27 Jul - 20:28:12 10° S 20:33:08 26° SE 20:38:08 10° ENE visible
27 Jul - 22:13:55 10° SW 22:19:43 51° WNW 22:25:39 10° N night (unlit)
28 Jul - 11:32:21 10° N 11:37:58 50° ENE 11:43:35 10° SE daylight
28 Jul - 13:19:52 10° WNW 13:24:33 24° SW 13:29:15 10° S daylight
28 Jul - 20:37:10 10° SSW 20:42:41 37° SE 20:48:18 10° ENE visible
28 Jul - 22:23:36 10° SW 22:28:56 33° WNW 22:34:20 10° N night (unlit)
29 Jul - 11:41:23 10° NNW 11:47:13 78° ENE 11:53:03 10° SSE daylight
29 Jul - 13:30:29 10° W 13:34:12 17° SW 13:37:56 10° S daylight
29 Jul - 20:46:15 10° SSW 20:52:09 55° ESE 20:58:09 10° NE visible
29 Jul - 22:33:37 10° WSW 22:38:03 21° WNW 22:42:33 10° NNW night (unlit)
30 Jul - 10:07:45 10° NE 10:10:54 15° ENE 10:14:02 10° ESE daylight
30 Jul - 11:50:43 10° NW 11:56:33 70° WSW 12:02:23 10° SSE daylight
30 Jul - 13:41:55 10° WSW 13:43:58 12° SW 13:46:02 10° SSW daylight
30 Jul - 19:11:08 10° SSE 19:14:17 14° SE 19:17:28 10° ESE visible
30 Jul - 20:55:29 10° SSW 21:01:32 82° ESE 21:07:42 10° NNE visible
30 Jul - 22:44:23 10° WSW 22:47:07 13° WNW 22:49:52 10° NW night (unlit)
